{"data":{"norad_id":56007,"epoch":"2026-05-24T22:57:47.284992Z","epoch_age_seconds":88984,"freshness":"FRESH","line1":"1 56007U 23042X   26144.95679728 -.00000332  00000+0 -25438-5 0  9995","line2":"2 56007  43.0058 348.8746 0001805 270.9056  89.1589 15.27575817174531","mean_motion":15.27575817,"eccentricity":0.0001805,"inclination_deg":43.0058,"raan_deg":348.8746,"arg_perigee_deg":270.9056,"mean_anomaly_deg":89.1589,"bstar":-2.5438e-6,"rev_number":17453,"period_min":94.267006846705,"perigee_km":481.82317512388,"apogee_km":484.30006782624,"semimajor_km":6861.1986214751,"source":"CELESTRAK","updated_at":"2026-05-25T13:38:17.925689Z"}}